Wind_Speed
62 59 57 57 58 58 56 55 54 53 53 54 56 57 56 55 55 55 55 56 57 57 58 57 56 55 54 53 53 53 53 52 52 53 55 56 58 59 61 63 66 68 70 73 75 78 79 79 79 79 78 76 76 76 75 75 75 73 73 71 71 71 71 71 70 66 63 63 64 67 72 76 77 79 79 78 79 80 80 82 83 84 85 85 87
65 62 59 57 57 57 57 55 55 54 54 55 57 57 57 57 57 58 58 59 59 59 58 57 56 56 55 55 55 54 53 53 54 55 56 58 60 62 64 66 68 69 71 73 75 77 77 77 77 77 75 74 73 74 74 74 72 71 70 69 68 69 70 70 70 68 65 63 64 66 70 75 76 77 78 79 79 80 81 82 84 85 86 87 88
67 63 60 58 56 56 57 57 56 56 56 57 57 58 58 59 60 61 61 61 60 59 58 58 58 57 57 56 56 55 55 55 56 57 58 60 62 65 66 68 69 71 72 73 74 75 75 74 74 73 71 70 70 71 71 69 67 66 66 66 67 68 70 71 71 71 69 66 65 66 69 73 74 75 76 78 79 81 82 82 83 85 88 90 91
67 63 60 58 57 58 58 58 58 58 58 58 58 59 60 61 62 63 63 62 61 60 60 59 59 59 58 57 57 57 57 58 59 60 61 63 65 67 68 70 71 71 72 72 72 72 70 70 69 69 68 67 66 66 66 64 64 64 64 66 68 70 71 73 72 72 72 69 67 66 67 70 73 75 77 78 79 82 83 84 86 87 89 91 92
65 62 60 59 59 59 58 59 60 60 60 60 60 61 63 63 64 64 64 63 62 62 62 61 60 59 58 58 59 59 59 60 61 62 63 65 67 69 70 71 71 70 71 71 71 69 67 66 66 65 64 64 64 64 64 64 64 64 66 68 71 72 72 73 72 72 72 71 69 68 68 71 73 74 77 80 82 84 85 87 88 89 89 89 90
63 61 60 60 60 60 61 62 63 62 61 60 61 63 64 64 64 65 65 65 65 64 63 62 61 60 60 61 61 62 62 63 63 64 65 67 69 70 70 70 70 70 71 70 68 65 63 62 63 64 65 65 65 64 64 65 65 66 67 69 71 72 72 72 73 73 73 73 72 70 69 71 72 73 77 81 85 88 89 88 88 88 89 89 91
65 63 63 63 64 64 65 65 64 63 62 62 62 63 64 64 65 65 66 67 66 65 64 64 63 62 62 63 63 64 65 65 65 65 66 68 69 69 69 69 69 69 67 64 62 60 60 61 63 65 66 67 66 66 66 66 67 67 68 69 70 71 71 72 73 73 73 73 72 71 70 70 72 74 78 83 86 89 91 91 90 89 90 91 92
66 66 66 67 67 66 65 64 63 64 64 64 64 64 64 64 64 65 66 66 66 66 65 64 63 63 64 64 65 65 66 65 65 66 67 68 68 67 67 67 65 62 59 58 58 59 58 59 60 62 64 66 67 68 67 67 67 67 68 69 70 71 72 72 72 73 73 73 72 73 73 73 74 77 81 85 88 89 89 91 93 92 93 92 91
65 66 66 66 65 64 64 63 64 65 65 65 64 64 64 64 64 65 65 65 65 65 64 63 63 64 65 65 65 65 64 64 65 65 66 65 64 63 62 61 58 57 56 56 56 57 57 58 60 61 63 65 65 66 66 67 67 67 68 69 70 71 71 71 72 73 74 74 75 76 77 78 79 81 84 85 87 89 90 93 95 96 95 92 89
62 62 63 63 63 63 63 63 64 65 64 64 63 63 63 63 64 65 65 65 65 65 64 63 63 64 64 64 63 62 62 62 63 63 62 60 59 59 58 57 56 56 56 56 56 57 58 60 61 63 63 64 64 65 66 67 68 68 69 69 69 69 69 71 73 74 76 77 78 79 81 82 82 83 84 85 87 90 92 94 96 96 95 94 92
60 60 60 60 62 63 63 63 64 63 63 62 62 62 62 63 64 65 65 66 66 66 66 66 65 64 63 62 61 60 60 61 60 59 57 57 57 57 57 56 56 56 56 56 57 58 60 61 62 63 63 64 65 66 67 68 69 69 68 68 69 70 71 73 75 78 79 80 81 81 82 83 82 82 84 86 89 90 91 92 94 95 96 97 95
58 59 60 62 63 63 63 63 62 62 62 62 62 62 63 63 64 65 66 67 68 68 68 66 65 63 62 60 59 58 58 58 57 55 56 57 57 57 58 58 58 57 57 57 59 60 62 62 61 62 63 63 64 65 66 67 67 68 68 69 71 73 75 77 79 81 82 82 82 80 81 82 83 83 84 87 89 89 89 91 92 95 96 95 95
64 63 63 64 64 63 63 63 63 64 64 64 64 64 65 65 67 69 70 71 70 69 66 64 64 62 61 59 57 57 57 56 55 56 57 58 58 59 60 61 60 59 58 59 60 61 62 61 60 61 61 62 62 63 64 65 66 68 69 71 73 76 78 79 80 81 81 81 81 80 81 83 84 83 83 85 88 90 91 92 92 93 94 95 96
71 69 69 68 66 65 65 66 66 66 66 66 66 66 67 68 70 71 72 71 69 67 65 64 63 61 58 57 56 55 55 55 56 58 59 58 59 61 62 61 59 58 59 60 59 59 59 59 59 59 60 61 63 63 64 65 67 68 70 73 75 76 77 77 78 79 79 79 80 79 79 81 83 83 83 85 89 92 93 93 91 92 94 96 97
71 73 73 72 70 68 68 68 68 67 67 68 68 68 69 70 71 70 70 69 67 65 65 63 60 57 56 55 54 54 55 56 58 59 59 59 60 61 61 59 58 58 58 58 57 57 57 57 58 59 61 63 64 64 65 65 67 68 70 73 74 76 77 77 78 78 78 78 78 78 78 80 82 83 84 86 89 91 93 93 92 93 97 98 99
71 74 74 72 71 71 70 71 70 70 70 71 71 72 72 71 70 70 69 68 66 65 64 61 58 56 54 54 54 55 56 57 58 59 60 60 61 60 59 58 58 57 56 54 54 55 56 58 59 61 62 63 63 64 65 66 68 70 72 73 75 77 78 79 79 78 78 77 77 78 79 80 81 83 84 86 89 91 93 93 92 95 99 101 102
71 75 76 75 73 73 73 73 73 73 73 74 74 74 73 72 71 70 68 66 64 63 63 61 58 56 55 54 54 54 55 57 58 60 60 60 60 58 57 56 55 53 52 51 51 53 56 58 60 62 63 64 65 67 69 71 72 73 74 75 77 78 79 79 79 79 78 77 77 78 79 80 81 83 85 87 89 91 94 94 93 95 98 101 104
71 74 76 77 77 77 77 76 76 76 76 76 76 75 73 72 71 69 67 64 62 62 62 60 56 54 54 54 54 55 56 57 57 58 59 59 57 56 55 53 52 51 51 50 51 52 55 57 60 62 63 66 68 70 72 74 74 75 76 77 78 79 80 80 79 78 78 77 76 78 80 82 83 84 84 86 87 90 94 96 96 97 99 101 103
70 72 73 75 76 76 77 76 76 76 76 76 76 75 74 74 72 70 68 64 60 59 58 55 54 55 56 57 57 57 57 56 57 57 57 57 56 55 53 51 50 50 51 51 52 53 55 58 60 62 64 67 69 72 74 75 75 76 77 78 79 80 80 80 79 78 77 76 77 79 82 83 83 83 83 84 86 89 92 95 97 100 102 102 100
69 69 70 72 73 74 75 75 77 77 77 76 76 77 77 76 73 69 65 60 56 54 54 54 57 59 59 59 60 59 57 57 57 56 56 56 55 53 52 50 50 50 51 52 53 55 57 59 61 63 66 68 70 72 74 76 77 78 79 80 81 81 80 79 79 78 77 77 79 82 82 81 80 81 82 83 86 88 90 94 98 101 102 101 95
69 69 70 70 71 72 73 75 77 77 78 78 78 78 75 71 67 62 58 55 54 54 56 59 61 61 60 61 61 61 59 58 57 56 56 56 54 52 52 52 53 54 55 55 56 57 59 61 63 65 67 68 71 73 74 76 77 78 79 81 81 80 79 79 77 76 77 78 81 81 80 79 78 79 81 83 85 87 90 93 97 100 100 95 85
69 68 68 70 71 73 75 77 79 80 80 80 79 76 72 68 64 61 59 57 55 56 60 63 62 60 61 63 63 63 62 60 59 57 57 57 55 54 56 58 59 60 60 59 59 59 61 63 65 66 68 69 71 72 74 76 77 78 79 80 79 79 78 76 75 76 78 80 81 81 79 78 78 79 81 83 84 86 89 92 95 97 93 84 75
69 68 69 72 75 76 76 74 72 72 73 75 76 74 71 68 65 63 61 59 57 58 63 66 64 62 63 65 66 65 64 63 61 59 59 58 58 59 62 64 64 63 62 61 61 61 62 63 65 67 68 70 71 72 73 74 76 77 78 78 78 78 75 73 73 76 78 80 81 81 79 79 79 80 82 83 83 85 89 92 94 93 84 73 66
70 70 70 72 72 73 73 70 65 63 63 66 70 70 67 65 62 61 60 59 58 60 65 68 68 66 67 68 69 68 67 66 64 63 63 63 63 65 68 68 66 65 64 63 63 63 63 64 65 67 69 71 71 71 71 73 74 75 76 77 78 75 72 71 73 76 78 80 81 80 79 79 81 81 82 82 82 85 89 91 91 86 74 64 60
70 69 68 68 67 68 70 71 70 69 69 70 72 70 66 64 63 60 58 58 59 61 65 69 71 72 72 72 72 71 70 69 68 68 69 70 70 71 72 71 70 69 67 66 66 66 66 65 66 68 71 71 70 69 70 71 73 74 75 77 75 72 71 72 75 77 79 80 80 79 79 80 81 83 83 82 83 86 89 89 86 76 65 59 56
73 72 71 70 70 70 71 72 73 73 73 73 73 70 67 67 65 61 59 59 60 62 66 70 74 75 75 74 74 74 73 73 73 72 72 73 74 75 75 75 74 72 70 69 70 70 70 69 69 70 71 70 69 69 70 71 72 73 75 75 72 70 71 74 77 79 80 80 80 79 80 81 82 83 82 83 85 87 88 85 79 67 58 55 53
78 78 77 74 73 73 74 74 75 75 74 74 74 73 73 73 70 65 62 62 62 63 66 71 75 77 77 77 76 76 76 76 76 76 75 75 76 77 78 77 75 73 72 73 73 73 73 72 72 71 70 69 68 69 69 70 71 73 73 71 69 70 74 77 79 81 80 80 80 80 81 82 83 82 82 84 86 87 84 79 71 61 55 53 51
81 81 80 79 77 77 77 76 76 76 77 78 79 79 79 77 73 70 66 65 64 65 67 71 75 78 79 80 79 79 79 79 78 78 77 76 76 76 75 75 74 73 74 74 73 72 72 73 73 70 68 67 68 69 69 70 71 71 70 68 69 72 76 78 79 80 80 80 81 81 82 83 83 83 83 85 86 84 78 71 64 57 53 52 50
82 82 82 82 81 81 81 81 80 80 80 80 81 81 79 76 75 73 70 69 69 69 71 75 77 78 78 79 80 80 80 79 78 78 77 75 74 72 70 70 71 72 73 73 72 71 72 74 73 69 66 66 68 69 69 69 69 69 67 68 70 74 76 77 77 77 79 80 81 82 83 82 82 83 84 85 85 80 70 62 58 56 53 51 49
80 81 81 82 82 82 82 83 83 83 83 82 80 80 78 77 77 76 75 74 75 76 77 78 78 75 74 75 76 77 77 77 77 77 75 74 74 72 68 66 67 71 73 73 72 72 73 74 73 68 65 66 68 67 66 66 66 66 67 69 72 74 75 75 76 77 79 80 81 82 83 82 82 84 85 85 83 73 62 56 55 54 52 51 49
80 80 81 81 81 81 82 83 83 84 84 83 81 80 79 78 78 78 78 78 79 80 80 79 78 76 73 73 73 74 74 75 75 75 74 74 74 71 68 67 69 71 71 70 70 71 73 75 74 70 67 67 67 64 63 64 64 65 66 69 72 72 73 74 76 77 79 80 81 82 83 83 84 85 84 84 78 66 55 52 52 52 50 50 50
78 80 82 82 82 82 83 83 84 85 84 83 82 82 80 79 79 79 79 79 80 80 80 80 79 77 75 73 73 73 73 73 74 74 75 75 73 69 69 69 68 67 67 68 69 71 74 75 75 72 69 67 64 61 60 62 63 65 67 68 68 69 71 73 75 77 79 80 81 81 82 84 85 84 83 81 72 58 50 49 50 49 49 49 50
80 80 82 84 85 86 86 86 86 86 85 84 84 84 83 81 79 79 79 80 81 81 80 79 78 77 76 74 73 73 74 75 75 76 77 76 73 70 69 68 65 64 66 69 71 72 74 75 75 73 70 66 61 59 60 61 63 64 65 65 65 68 71 73 75 76 78 79 80 81 82 84 84 83 81 75 65 54 48 47 47 47 47 48 48
87 83 83 84 85 87 88 88 88 88 88 87 86 86 86 85 83 81 80 80 81 81 79 78 79 79 78 77 76 77 78 78 78 79 78 76 73 72 71 69 66 65 67 70 71 73 74 75 74 72 68 62 58 58 59 61 62 62 61 62 64 67 70 73 75 76 77 78 80 81 83 83 82 81 77 69 58 51 48 47 45 45 46 47 47
95 91 88 86 85 85 87 89 90 90 91 91 91 89 88 88 88 87 85 83 83 83 82 81 81 81 82 81 80 80 80 80 80 78 75 72 71 71 71 70 69 68 69 70 71 73 74 74 72 68 63 58 56 57 59 60 59 58 58 60 64 67 69 72 74 75 76 78 79 81 82 81 79 77 71 63 55 51 49 45 44 44 46 46 45
104 102 98 95 92 91 92 94 96 96 95 95 96 95 94 92 91 90 90 89 87 87 86 85 84 85 85 85 84 84 82 80 77 73 71 71 72 73 72 70 69 69 69 70 71 72 72 70 67 63 58 56 56 57 57 56 55 55 57 60 63 66 69 71 73 74 76 77 79 80 80 77 75 71 65 58 54 53 49 44 42 43 45 44 42
113 111 109 107 106 105 104 103 102 101 99 98 98 98 97 96 95 94 94 94 93 92 93 92 92 91 91 90 89 86 81 75 71 70 71 72 72 71 69 69 69 69 70 71 72 71 68 65 61 58 56 55 55 55 53 52 52 54 57 60 63 66 68 70 72 74 75 77 78 78 76 72 69 65 59 55 54 53 49 44 41 41 42 42 40
118 116 115 115 115 115 115 113 109 107 106 105 105 104 102 101 100 99 98 97 96 96 96 95 94 93 93 93 91 86 80 75 72 70 69 68 67 67 67 68 69 70 70 70 69 66 63 59 56 53 53 54 53 50 49 49 51 54 57 59 62 65 67 69 71 73 75 76 76 75 71 66 62 59 56 55 54 52 48 43 41 40 40 39 38
119 118 118 118 119 119 119 117 113 109 108 108 109 109 108 106 104 103 102 100 98 97 96 96 95 95 95 93 90 85 80 76 72 69 67 65 65 66 67 68 69 69 68 66 63 60 56 53 51 51 51 50 48 46 47 49 51 54 56 59 61 64 66 68 70 72 74 75 74 71 66 61 57 55 54 54 53 51 47 43 41 40 39 37 36
118 118 118 118 119 119 117 114 110 108 107 106 106 107 107 106 106 106 106 105 102 100 99 97 97 96 94 90 85 80 75 71 69 68 66 65 65 65 66 66 66 65 63 60 57 54 51 50 50 50 47 45 44 45 47 49 51 53 56 58 61 63 66 68 69 71 73 73 70 66 61 56 53 52 52 52 51 49 45 42 40 39 38 35 34
110 112 113 114 113 111 109 106 103 101 101 101 102 103 103 104 104 105 104 103 102 100 99 97 94 91 88 84 79 74 70 68 68 66 64 62 63 63 63 64 63 62 59 55 52 50 49 49 48 45 42 41 43 45 47 49 51 53 55 58 60 63 65 67 69 71 71 70 67 62 57 52 50 51 51 50 48 46 43 41 40 38 35 33 33
92 95 97 99 99 98 96 94 92 91 91 92 93 95 96 97 98 99 99 98 97 94 92 89 86 83 80 75 71 68 66 64 62 60 60 60 61 61 62 63 62 59 55 52 50 49 48 46 43 40 40 42 44 45 46 48 50 52 55 58 60 62 64 67 69 70 69 66 63 59 53 49 48 49 49 47 45 43 41 39 39 36 33 31 32
74 76 78 79 80 80 79 79 78 78 78 79 80 81 83 84 85 86 86 85 84 80 77 74 72 70 68 65 62 59 58 56 56 57 58 59 60 61 62 61 57 54 51 50 48 46 44 41 39 39 40 42 43 44 46 48 50 52 55 57 59 62 64 67 69 69 67 63 59 55 50 47 46 47 46 43 41 39 38 38 37 34 30 29 30
62 63 64 64 65 65 65 66 66 66 66 66 66 67 68 69 68 68 67 67 66 66 64 63 61 59 57 54 52 51 51 53 55 56 57 58 59 59 56 53 51 50 49 47 44 41 39 38 38 40 41 42 43 44 46 48 50 53 55 57 59 62 64 67 69 68 64 60 57 52 47 44 44 45 43 40 38 36 35 36 34 31 28 28 29
54 54 54 54 54 54 55 55 55 55 55 55 55 55 55 53 51 51 51 52 54 54 54 53 52 50 47 46 47 48 50 53 55 55 56 56 55 53 50 50 49 47 44 42 40 39 38 38 39 40 41 42 43 44 46 49 51 53 55 57 59 62 64 67 69 67 62 58 55 51 46 43 43 43 41 38 36 34 33 33 32 29 27 27 26
42 42 43 43 43 44 45 45 46 45 44 44 44 42 41 40 40 41 43 45 45 45 44 44 42 41 40 42 45 47 48 50 52 53 53 52 50 49 49 47 44 41 39 39 38 37 37 38 40 41 41 42 43 45 47 49 51 53 55 57 59 62 64 67 68 65 59 55 53 50 45 42 42 42 40 37 34 32 32 32 30 27 26 26 25
29 30 31 31 32 33 34 34 34 34 34 34 33 33 33 34 35 36 37 38 38 37 37 37 38 40 41 42 43 45 47 49 50 51 51 49 48 47 46 42 39 38 38 38 37 37 38 39 40 40 41 42 43 45 48 50 51 53 55 57 59 62 64 67 67 63 57 53 52 49 44 41 40 40 39 36 33 31 30 29 28 26 25 26 25
26 27 27 27 27 27 27 28 28 29 30 30 30 31 32 33 33 33 34 35 34 33 33 34 37 40 41 40 40 43 48 50 50 49 48 47 45 43 40 38 38 38 38 36 36 38 39 40 40 40 41 42 44 46 48 49 51 53 54 56 58 61 63 66 66 61 55 52 52 49 44 41 39 39 38 35 32 31 29 27 25 24 24 25 25
28 28 29 29 29 29 29 29 30 31 32 32 32 32 32 32 33 33 32 32 32 33 33 35 37 38 38 39 39 41 44 46 46 44 43 42 40 38 37 37 38 37 36 36 38 39 40 40 40 41 42 43 45 46 48 49 51 52 53 55 58 60 62 64 64 60 55 52 51 48 44 40 38 38 37 35 32 30 29 27 25 23 23 23 23
24 25 26 28 29 30 30 31 32 34 35 35 34 33 33 34 35 33 29 28 29 31 33 34 35 36 37 38 39 39 39 40 40 39 38 37 36 36 36 37 37 37 37 38 39 39 39 40 40 42 43 44 45 47 48 49 50 52 53 55 57 59 61 62 61 58 54 51 50 47 43 39 36 36 36 34 32 29 28 26 25 23 23 22 21
16 17 18 20 23 25 26 28 29 31 32 32 32 32 32 32 31 30 30 29 29 28 29 31 34 36 36 36 35 36 36 36 35 35 34 34 35 35 36 36 36 37 38 39 39 39 39 40 41 43 44 45 46 47 48 49 51 52 53 55 56 58 60 61 60 57 54 51 49 48 44 39 36 35 35 34 32 28 26 25 24 23 23 22 20
Wind_Direction
264 265 269 273 275 277 276 274 273 274 275 275 275 275 274 273 272 272 273 273 274 275 278 279 278 276 277 277 276 277 277 277 278 277 278 279 281 284 286 287 288 287 286 286 285 285 285 287 287 288 288 288 288 286 285 284 284 284 284 284 284 284 284 283 283 282 281 281 281 282 282 283 283 284 283 283 283 283 283 283 284 284 285 286 286
263 264 268 272 274 275 274 272 272 273 273 274 274 274 274 273 273 273 273 273 274 276 278 278 277 276 276 277 277 277 278 278 279 279 280 281 284 286 287 288 288 287 285 284 284 285 286 287 288 288 288 287 286 285 284 284 285 285 285 285 285 285 284 284 284 283 282 281 281 281 282 282 283 283 283 283 283 283 283 283 285 287 288 289 290
263 265 269 272 273 272 271 270 269 270 271 272 273 273 273 273 273 273 273 274 275 276 277 276 275 275 276 276 276 277 279 280 281 282 283 285 286 288 289 289 288 287 286 286 286 287 288 288 287 287 286 285 283 283 284 284 285 285 285 285 285 285 285 285 285 285 284 282 281 281 280 281 282 283 283 283 283 284 284 286 288 290 291 292 292
266 267 269 271 271 270 270 270 270 269 269 270 271 272 272 272 272 273 273 274 275 275 275 275 275 275 275 275 276 278 280 282 283 285 286 288 289 290 290 290 289 288 288 288 288 289 289 289 287 286 285 283 282 283 283 284 284 285 285 285 285 285 285 285 285 285 285 284 283 282 281 281 282 283 284 284 285 286 288 290 291 291 292 293 294
269 269 269 269 269 270 271 271 271 270 269 269 269 270 271 271 272 273 274 274 274 275 275 274 274 274 274 275 277 279 281 283 285 286 288 289 289 290 290 289 288 288 289 289 290 291 291 290 288 286 284 283 283 283 285 285 286 285 285 284 284 285 286 286 287 287 287 287 286 284 284 283 284 285 286 287 288 289 289 290 291 291 292 293 294
270 270 269 268 268 269 270 271 270 268 268 268 268 268 269 270 272 273 274 274 274 274 274 273 273 273 273 275 278 280 282 284 286 288 288 288 288 288 288 288 288 289 290 291 292 292 291 289 286 285 285 285 286 286 286 285 284 283 283 284 285 287 288 289 289 289 289 289 288 287 287 287 288 289 289 289 289 289 289 288 290 291 292 293 294
270 270 269 268 268 268 268 268 266 265 266 266 267 268 269 270 271 272 272 272 272 272 272 272 272 272 274 277 279 281 283 285 287 288 287 287 287 287 287 287 289 291 292 292 290 289 287 285 284 285 286 286 286 285 284 283 283 284 285 287 289 290 291 291 291 291 291 292 292 292 292 291 291 290 289 288 289 289 289 290 290 292 293 295 296
270 270 269 269 270 270 268 266 264 263 264 265 266 268 269 269 269 269 269 270 270 270 270 271 272 273 276 278 281 283 285 286 286 286 286 286 286 286 288 290 291 292 292 290 288 286 286 286 287 288 288 288 287 285 284 284 285 286 289 291 292 293 293 293 293 294 294 294 294 294 294 292 291 290 289 289 289 290 291 293 294 294 294 295 296
270 270 270 271 271 269 267 265 264 263 263 265 266 267 267 267 267 268 268 269 269 269 270 271 273 275 278 279 281 283 284 285 285 285 286 286 287 289 291 292 292 291 290 288 287 288 289 290 291 292 292 291 289 287 286 286 287 289 291 293 294 294 294 294 295 295 295 295 295 295 294 293 292 291 291 291 292 292 293 295 296 296 296 296 296
271 270 269 269 268 267 266 265 265 264 264 265 265 265 265 266 266 267 268 269 270 271 271 273 275 277 278 280 281 283 284 284 285 287 287 289 291 292 292 291 290 289 288 288 289 290 292 293 294 294 293 291 288 287 287 288 290 291 293 293 294 294 295 295 296 296 296 296 297 296 295 295 294 294 294 294 295 296 297 298 298 298 299 299 299
270 268 268 267 266 266 265 264 264 264 264 263 263 264 265 265 267 268 269 271 272 273 273 274 275 277 278 280 282 283 285 286 287 288 290 291 292 292 290 289 288 287 287 288 290 292 294 295 295 294 292 290 289 288 289 290 291 292 293 294 294 295 296 297 298 298 298 299 299 298 297 297 296 297 298 298 298 299 300 300 301 301 302 302 303
270 268 267 266 266 266 265 263 263 262 262 262 262 263 265 267 269 271 272 273 273 272 272 273 274 276 278 281 282 284 286 287 288 289 290 291 291 289 288 287 286 286 287 289 292 293 295 295 294 292 291 290 290 291 292 292 293 293 294 295 296 297 298 299 300 300 300 301 300 299 299 298 299 300 301 301 301 302 302 302 303 303 304 304 305
271 269 268 267 266 265 263 262 261 260 260 261 262 264 267 269 271 272 272 271 271 271 271 272 273 276 278 280 282 284 285 286 286 288 289 289 289 288 287 286 286 287 289 291 294 294 294 293 292 291 291 292 293 294 294 294 294 295 295 296 297 298 300 301 301 302 302 301 301 301 300 301 302 303 303 303 303 303 303 303 304 304 305 305 306
271 269 268 266 264 262 261 260 260 259 260 261 263 266 268 270 271 271 271 270 270 270 271 271 273 275 277 278 280 282 283 283 285 286 287 287 287 287 286 286 287 289 292 293 295 295 294 293 292 292 293 294 295 295 295 296 296 296 297 298 299 300 301 301 301 302 302 302 301 302 302 302 303 303 303 303 304 304 304 304 305 306 305 305 306
270 268 266 263 261 260 260 260 260 261 262 263 265 268 270 271 271 271 271 271 271 271 271 271 272 273 274 275 277 278 279 280 282 283 284 285 286 285 285 286 288 291 293 295 296 296 295 295 295 294 295 295 296 296 297 297 298 298 299 300 301 301 301 301 301 302 302 301 302 302 303 303 303 303 304 304 305 305 305 306 307 307 306 306 308
267 264 262 261 260 260 260 261 262 263 264 265 267 270 271 272 272 271 271 271 271 270 270 270 269 270 271 272 274 275 277 278 280 281 282 283 283 283 284 287 290 293 294 296 297 297 296 296 295 296 296 297 297 298 299 300 300 300 301 301 302 302 301 301 301 301 301 301 303 303 304 304 304 304 305 306 306 306 305 306 308 307 307 308 310
264 262 261 260 260 261 262 263 264 265 266 267 269 271 272 273 272 271 270 269 269 268 267 267 268 268 269 271 273 274 275 276 278 280 280 280 281 283 285 288 291 294 296 297 298 297 296 296 296 297 297 297 298 299 300 301 302 301 301 301 302 302 302 301 301 301 301 302 304 305 305 305 305 305 306 306 306 306 306 307 308 307 308 309 310
263 262 262 262 262 262 264 264 265 266 267 268 270 271 271 271 270 269 268 267 266 265 266 267 267 267 268 271 272 272 274 275 277 278 279 279 282 285 288 290 293 295 296 298 299 298 297 297 298 298 298 299 300 301 301 302 302 302 302 302 303 303 302 302 301 301 301 302 304 305 306 306 305 304 305 305 306 307 307 308 308 309 310 310 310
263 263 262 262 262 263 263 264 265 267 268 269 270 270 270 269 269 267 266 264 264 265 266 266 264 265 268 270 270 271 272 273 275 276 277 279 282 285 288 291 294 296 298 299 299 299 298 298 299 300 301 301 302 302 303 303 303 303 303 303 303 303 303 302 302 301 301 302 304 306 306 305 304 303 304 305 307 307 308 309 310 310 311 311 309
264 262 261 261 260 260 262 263 265 267 267 268 268 268 267 266 265 264 263 264 265 267 266 264 263 265 268 269 268 269 270 271 272 274 275 278 281 285 288 292 295 298 300 301 301 300 299 299 299 301 302 303 303 304 304 304 304 304 304 304 304 303 302 302 302 301 301 302 305 307 307 305 304 304 305 307 308 308 309 310 310 311 310 310 307
266 265 265 264 262 260 260 261 263 264 265 265 265 265 264 264 263 263 264 266 268 268 264 261 262 265 266 266 267 268 268 268 270 271 274 277 280 284 288 292 296 298 300 301 301 301 301 301 300 301 301 302 303 303 304 304 304 304 303 303 303 302 302 302 301 300 301 304 306 308 307 305 305 306 307 308 309 309 310 310 310 310 309 307 303
268 269 269 268 266 264 262 262 262 262 263 263 263 263 264 265 266 266 267 269 269 266 262 261 263 264 263 264 266 266 266 267 268 270 273 276 279 283 289 293 296 298 299 300 300 301 302 302 301 300 300 300 301 302 303 304 304 303 302 302 301 301 302 301 300 300 303 306 308 308 307 306 306 308 308 309 309 309 310 310 310 309 307 303 299
268 270 271 269 267 264 261 258 257 257 258 259 261 263 264 265 265 266 268 270 268 264 262 263 263 262 261 263 265 266 266 266 267 270 272 275 278 283 289 293 296 297 298 298 299 300 301 301 300 298 298 298 299 300 302 303 302 302 301 300 300 300 300 299 300 302 305 307 308 308 307 307 308 309 308 308 309 310 310 310 309 308 304 298 295
266 267 267 265 263 260 257 254 250 249 249 253 258 261 262 262 265 267 268 268 265 263 262 263 263 261 261 263 265 265 266 266 268 271 272 273 277 283 289 293 296 298 298 297 297 300 301 300 298 297 296 297 297 299 300 301 301 300 299 299 299 299 298 299 302 304 306 307 307 307 307 307 308 308 308 309 310 311 310 309 309 307 301 294 293
262 262 262 262 262 260 260 259 257 254 253 255 259 261 260 262 266 267 266 265 265 263 262 263 263 263 263 263 264 265 266 267 270 272 273 275 278 284 289 292 295 297 298 297 297 299 301 301 298 297 296 296 297 298 299 300 299 299 298 298 298 298 299 302 304 306 307 307 307 307 307 307 308 308 308 310 312 312 310 309 308 304 297 292 293
261 262 263 264 264 263 264 265 263 261 260 259 259 259 260 264 266 266 264 265 266 264 262 261 262 263 263 263 265 266 268 270 272 273 275 277 281 284 287 289 292 296 298 299 298 299 301 301 300 298 296 295 296 298 299 299 298 298 298 298 298 299 301 304 306 307 307 307 307 307 307 308 308 309 310 312 313 312 310 309 306 301 294 291 293
260 262 262 262 263 263 264 265 265 264 263 262 261 261 262 264 265 264 263 264 266 265 263 261 261 262 263 264 266 268 269 271 273 274 275 278 281 284 286 289 292 295 298 299 299 299 299 301 301 298 295 294 296 297 298 297 297 297 298 298 299 301 304 306 307 307 307 307 307 307 308 308 309 310 312 314 313 312 310 307 303 298 293 293 293
258 260 260 261 261 262 262 262 262 262 263 264 265 264 263 264 265 264 264 264 265 266 265 263 262 261 262 264 266 268 269 271 272 273 275 278 282 285 289 291 293 295 297 298 298 298 299 300 300 296 292 292 295 296 296 296 296 297 297 298 300 303 305 306 307 307 307 307 307 308 309 309 310 312 314 314 314 312 309 304 299 296 295 295 294
255 257 258 259 260 261 261 259 258 258 258 259 259 258 259 260 262 264 264 264 265 265 264 262 261 259 259 261 263 265 266 268 270 271 274 278 283 288 291 292 292 295 297 297 297 297 298 300 298 293 289 290 292 293 294 296 297 297 298 299 302 304 305 305 306 306 306 307 308 308 309 310 311 313 315 315 314 312 307 301 297 296 296 296 297
254 255 256 257 257 257 257 256 255 254 253 252 251 250 252 254 257 259 260 261 261 260 259 259 258 257 257 259 260 263 264 266 268 271 275 281 286 290 291 290 291 293 296 296 295 295 297 298 295 289 287 288 289 291 294 296 297 297 299 301 302 304 304 305 305 306 306 307 308 309 310 311 313 315 315 314 314 311 304 299 297 297 297 298 299
253 254 255 255 254 253 253 254 253 253 252 252 250 249 249 250 252 254 255 255 256 256 256 256 257 258 259 259 261 263 265 266 270 274 280 286 290 292 292 291 291 293 294 293 292 292 295 295 291 286 284 286 287 289 293 295 296 297 299 301 302 303 303 304 305 306 307 308 309 310 311 313 314 315 315 314 313 309 302 298 298 297 298 300 301
252 253 253 252 252 251 252 252 252 251 251 251 250 250 249 248 249 250 251 252 252 254 255 256 257 258 259 260 262 265 267 270 276 281 286 290 293 292 291 291 292 291 290 287 286 289 292 291 287 283 282 284 286 289 292 294 295 297 299 300 301 302 303 304 305 306 307 308 309 311 313 314 314 315 315 314 312 307 302 299 298 297 299 302 302
249 249 249 249 249 248 249 250 251 251 251 250 251 251 251 249 248 248 248 249 250 252 253 255 256 258 260 263 266 270 274 278 282 285 288 291 292 290 290 290 289 286 283 282 282 285 288 287 284 281 281 283 286 289 292 294 295 297 299 300 301 302 303 304 305 307 308 309 311 313 314 314 314 315 315 314 311 306 303 301 299 298 301 303 303
248 248 248 249 250 249 247 248 249 251 251 250 251 251 252 251 250 250 250 250 251 253 255 257 258 260 263 266 269 273 278 281 284 287 289 290 290 289 289 288 284 280 279 279 280 282 283 283 280 279 279 282 286 289 291 293 295 297 299 301 302 303 303 304 306 308 309 311 313 314 314 314 314 314 314 313 310 307 306 304 301 301 303 305 304
248 249 250 253 255 255 254 253 253 254 255 255 254 254 253 253 253 255 255 255 255 256 258 260 262 263 265 268 272 277 280 283 286 287 287 286 285 285 284 282 280 278 277 277 278 279 280 278 277 277 279 282 286 288 291 293 295 296 299 301 302 303 304 305 307 309 311 313 314 315 314 314 314 314 314 312 309 307 307 305 303 304 306 307 305
249 251 252 254 257 259 260 260 259 258 259 260 260 260 259 258 258 259 260 260 259 259 260 263 266 267 268 271 275 280 283 285 285 285 283 282 283 282 280 278 277 277 275 274 275 276 276 275 275 277 280 283 286 288 290 292 294 297 299 301 302 303 304 306 308 310 312 314 315 315 315 314 314 313 312 311 309 308 308 306 305 307 309 308 306
251 252 253 255 258 260 263 264 262 260 259 260 261 262 263 263 263 263 263 263 263 264 264 266 268 270 271 273 277 281 283 283 281 280 280 280 280 278 275 273 273 272 272 272 272 272 272 273 274 277 280 283 285 287 289 291 294 298 300 301 302 304 306 308 310 312 314 316 316 315 315 314 313 312 311 310 308 308 308 307 307 310 310 308 306
255 255 256 257 259 261 264 267 267 264 260 259 260 261 263 264 265 264 264 263 264 264 265 266 267 269 272 275 278 280 281 280 278 277 276 274 272 269 268 269 269 269 269 269 270 270 270 271 273 276 280 283 284 286 288 292 296 299 300 302 304 306 308 310 312 315 316 317 316 315 315 314 312 310 309 309 309 308 308 307 309 312 310 307 305
258 259 260 261 262 263 265 267 268 265 262 261 260 260 261 263 263 264 263 263 263 264 265 266 268 271 274 276 278 279 279 278 276 274 272 268 266 265 265 266 266 266 266 267 267 267 268 270 273 277 280 281 283 286 290 294 297 299 301 303 305 308 310 312 315 317 317 317 316 316 315 313 310 309 308 309 309 308 308 308 311 312 310 305 304
259 260 261 263 264 265 266 266 266 264 263 262 261 261 261 261 262 262 263 264 265 266 267 268 271 273 275 276 277 277 276 273 272 271 270 267 263 262 263 263 264 264 265 266 265 265 266 270 275 277 278 280 284 288 292 295 297 299 302 305 307 309 311 314 317 318 318 318 316 316 314 311 308 307 308 308 308 308 308 309 311 312 309 305 304
257 259 260 261 262 263 264 264 264 263 262 262 261 261 261 262 262 263 264 266 267 268 270 271 272 273 274 274 274 273 270 268 268 268 265 261 259 259 260 262 263 264 265 264 264 265 268 271 274 276 278 282 286 289 292 294 297 300 304 307 309 311 314 317 319 320 319 318 316 315 313 309 307 307 307 307 308 308 308 309 310 310 307 305 306
256 256 257 258 259 260 261 262 262 262 261 261 261 262 262 262 263 264 265 267 269 270 271 271 271 271 271 270 269 267 266 265 264 261 257 255 256 258 260 261 262 263 263 262 262 265 268 271 273 275 279 283 286 289 292 295 298 302 305 308 310 313 316 319 321 321 320 318 316 315 312 308 306 307 307 307 308 307 307 308 310 308 305 305 306
256 256 256 257 257 258 259 260 260 261 261 261 262 262 262 263 263 264 265 267 268 268 268 268 266 266 265 264 263 261 259 257 255 253 252 254 256 257 257 258 259 260 259 260 262 264 267 270 272 276 280 283 286 289 293 297 300 304 307 309 313 315 318 320 322 322 320 317 316 314 311 307 306 307 307 307 308 307 306 307 308 306 304 304 305
256 256 256 257 258 258 259 259 259 260 260 260 260 260 261 262 263 263 264 264 264 264 263 262 261 260 259 257 255 253 251 250 250 250 251 253 254 254 255 256 256 256 257 259 261 264 267 269 273 276 279 283 286 291 295 298 301 304 308 311 314 317 319 322 323 322 320 317 316 314 310 307 307 307 307 308 308 307 306 306 305 303 301 301 302
256 256 257 257 257 257 257 257 257 257 257 257 257 258 259 260 260 259 258 257 257 257 257 256 255 253 249 245 244 245 246 248 248 250 252 253 253 253 252 252 252 253 255 258 261 264 267 270 273 275 279 284 288 292 296 299 302 306 309 312 315 318 320 322 323 322 320 317 316 315 311 307 307 308 309 309 309 308 307 306 304 300 298 298 299
256 257 256 256 255 255 255 255 256 256 255 255 255 256 255 255 254 253 252 253 253 252 250 248 244 240 238 239 240 241 244 246 247 249 252 252 250 248 248 248 250 252 255 257 260 263 267 270 273 276 281 286 290 293 297 300 303 307 311 314 317 319 321 323 324 322 319 317 317 316 312 308 308 309 310 310 311 310 309 308 304 300 297 297 299
257 255 255 254 254 253 252 251 251 250 250 250 250 250 250 250 251 252 253 252 249 246 244 239 232 229 234 241 244 243 242 243 245 247 249 249 247 246 246 247 249 251 253 256 260 264 267 270 274 279 284 288 291 295 298 301 305 309 312 316 318 320 322 323 323 322 319 318 319 317 312 308 309 310 311 311 311 311 310 308 303 298 296 297 300
255 253 252 251 250 249 247 246 246 246 245 245 245 247 249 251 252 254 254 250 242 237 235 232 228 230 237 245 247 245 243 242 242 244 246 245 244 244 245 246 248 250 253 257 261 264 267 271 276 281 285 289 292 295 299 302 306 310 314 317 319 320 322 323 323 321 319 319 319 318 313 309 310 311 311 311 312 312 310 306 301 296 293 296 302
252 249 247 245 245 244 243 242 242 242 242 243 245 249 251 251 252 253 250 243 234 229 229 230 232 236 241 244 245 244 242 240 240 241 241 240 240 241 242 244 247 250 254 257 260 263 267 273 278 282 286 290 293 296 299 303 307 311 314 317 319 320 322 323 322 321 319 318 319 318 313 308 309 312 311 310 312 313 311 307 301 295 292 295 302
250 247 244 242 240 239 239 239 240 241 242 244 247 248 249 250 249 245 237 232 231 231 231 234 238 242 243 242 240 237 235 234 235 235 235 235 236 238 241 244 248 251 255 258 261 265 270 275 279 284 287 291 294 297 300 304 308 311 314 316 318 320 321 322 322 320 318 317 318 318 313 308 308 311 311 309 310 312 311 307 300 293 291 294 300
239 238 236 235 235 235 236 238 240 241 242 242 244 245 245 244 240 231 224 224 230 233 235 239 241 242 239 236 231 228 228 228 228 228 229 231 234 238 242 246 249 253 256 259 263 268 273 277 281 285 289 292 295 298 301 305 308 311 314 315 317 319 321 322 321 319 317 316 317 318 315 309 307 310 311 309 308 309 309 306 299 292 290 294 298
Height
5657 5658 5658 5657 5656 5656 5655 5655 5654 5654 5653 5653 5652 5651 5651 5651 5650 5649 5648 5647 5646 5645 5644 5644 5643 5643 5642 5642 5641 5640 5639 5638 5636 5635 5633 5632 5631 5629 5628 5626 5623 5621 5619 5616 5614 5612 5609 5606 5602 5600 5599 5597 5594 5591 5589 5586 5585 5584 5581 5580 5578 5575 5574 5574 5575 5584 5590 5585 5581 5579 5572 5567 5564 5559 5556 5555 5550 5546 5546 5541 5536 5535 5533 5530 5528
5648 5650 5650 5650 5650 5649 5648 5647 5646 5646 5646 5645 5644 5643 5643 5642 5641 5641 5640 5639 5638 5638 5637 5636 5636 5635 5634 5634 5633 5632 5630 5629 5627 5626 5625 5623 5622 5620 5619 5616 5614 5611 5609 5606 5604 5602 5599 5596 5592 5590 5588 5586 5583 5581 5579 5577 5574 5573 5571 5569 5568 5565 5562 5562 5563 5566 5575 5577 5573 5570 5564 5557 5554 5550 5544 5543 5540 5535 5534 5531 5524 5521 5519 5517 5514
5640 5642 5643 5642 5642 5641 5640 5640 5639 5639 5638 5637 5637 5636 5635 5634 5633 5632 5632 5631 5631 5630 5629 5629 5628 5627 5627 5626 5624 5623 5622 5620 5619 5617 5616 5615 5613 5611 5609 5607 5604 5602 5599 5596 5594 5592 5590 5587 5583 5580 5578 5576 5573 5571 5569 5567 5565 5563 5561 5559 5557 5555 5551 5550 5551 5551 5557 5564 5563 5560 5556 5549 5544 5540 5534 5532 5529 5523 5520 5519 5515 5510 5505 5502 5500
5633 5635 5636 5635 5634 5633 5632 5632 5632 5631 5630 5629 5629 5628 5626 5626 5625 5624 5624 5623 5623 5622 5621 5621 5620 5620 5619 5618 5616 5615 5613 5612 5610 5609 5607 5606 5604 5602 5600 5597 5595 5592 5589 5586 5584 5582 5579 5576 5573 5571 5569 5566 5563 5561 5559 5558 5556 5553 5552 5549 5546 5544 5542 5539 5539 5539 5540 5548 5551 5547 5545 5541 5535 5530 5524 5521 5517 5511 5507 5505 5503 5500 5496 5491 5487
5625 5626 5627 5626 5625 5625 5625 5624 5623 5622 5622 5621 5621 5619 5618 5618 5617 5616 5616 5615 5614 5614 5613 5613 5612 5612 5610 5609 5607 5606 5604 5603 5601 5600 5599 5597 5595 5593 5590 5588 5585 5582 5579 5577 5574 5571 5569 5566 5563 5561 5560 5557 5554 5552 5550 5548 5546 5544 5541 5539 5535 5533 5532 5528 5527 5527 5526 5530 5535 5535 5532 5529 5526 5521 5513 5506 5504 5500 5497 5494 5490 5486 5485 5483 5478
5616 5617 5617 5617 5617 5617 5617 5616 5615 5614 5613 5613 5611 5611 5610 5610 5609 5608 5608 5607 5606 5605 5604 5604 5603 5602 5601 5600 5598 5597 5595 5594 5593 5591 5590 5588 5586 5584 5581 5579 5576 5573 5570 5567 5564 5562 5559 5557 5555 5553 5551 5549 5546 5543 5541 5538 5536 5534 5530 5528 5526 5523 5521 5519 5516 5515 5515 5515 5518 5521 5521 5517 5513 5511 5503 5492 5489 5486 5482 5483 5484 5476 5469 5469 5468
5605 5606 5607 5607 5608 5608 5608 5607 5606 5605 5604 5603 5602 5602 5602 5601 5601 5600 5599 5598 5597 5597 5596 5595 5594 5593 5592 5590 5589 5587 5586 5585 5584 5582 5580 5579 5577 5574 5572 5569 5567 5564 5560 5558 5555 5552 5550 5548 5546 5544 5541 5539 5537 5533 5531 5529 5526 5524 5521 5519 5517 5514 5511 5509 5506 5504 5503 5504 5504 5505 5507 5505 5501 5498 5492 5482 5477 5473 5464 5462 5470 5470 5458 5453 5453
5595 5596 5596 5597 5598 5598 5597 5597 5597 5596 5594 5593 5593 5593 5593 5592 5591 5590 5590 5589 5589 5588 5586 5585 5584 5583 5582 5580 5579 5578 5577 5576 5575 5573 5572 5570 5568 5565 5563 5560 5557 5554 5551 5549 5546 5544 5542 5540 5537 5535 5532 5529 5527 5524 5522 5520 5518 5516 5513 5510 5507 5504 5501 5498 5496 5493 5491 5492 5492 5491 5491 5492 5488 5485 5480 5471 5464 5461 5453 5443 5446 5451 5446 5443 5442
5586 5586 5586 5588 5589 5588 5587 5587 5586 5585 5584 5584 5584 5584 5583 5582 5582 5581 5580 5580 5579 5578 5577 5576 5575 5574 5572 5571 5569 5568 5567 5566 5565 5564 5563 5561 5558 5556 5553 5550 5548 5546 5543 5541 5539 5536 5534 5532 5529 5526 5523 5520 5518 5516 5514 5512 5510 5507 5504 5501 5497 5494 5491 5488 5485 5483 5481 5480 5481 5478 5476 5477 5474 5469 5466 5459 5449 5445 5442 5433 5428 5428 5424 5425 5431
5576 5576 5577 5578 5578 5577 5577 5577 5576 5576 5576 5576 5575 5574 5574 5573 5572 5571 5570 5569 5569 5568 5567 5566 5566 5564 5562 5561 5560 5559 5558 5557 5556 5555 5553 5551 5548 5546 5543 5542 5540 5538 5535 5532 5530 5528 5525 5523 5520 5517 5514 5512 5509 5508 5506 5503 5501 5499 5495 5492 5488 5484 5481 5478 5475 5472 5470 5469 5468 5465 5461 5460 5458 5452 5448 5444 5435 5429 5426 5419 5412 5409 5403 5399 5407
5567 5567 5567 5568 5567 5567 5568 5567 5567 5567 5567 5566 5566 5565 5564 5564 5563 5562 5561 5560 5559 5559 5558 5557 5555 5554 5552 5551 5550 5549 5548 5547 5545 5544 5542 5540 5539 5537 5535 5534 5532 5530 5527 5524 5521 5519 5517 5515 5512 5508 5506 5503 5501 5499 5497 5495 5492 5490 5486 5482 5478 5474 5470 5467 5464 5460 5457 5457 5456 5451 5445 5443 5442 5437 5431 5424 5418 5415 5411 5404 5395 5391 5385 5378 5379
5557 5558 5558 5558 5557 5557 5558 5558 5558 5558 5558 5557 5557 5556 5555 5554 5554 5553 5552 5551 5550 5549 5548 5546 5545 5544 5542 5541 5541 5540 5539 5537 5535 5534 5533 5531 5530 5529 5527 5526 5524 5521 5519 5516 5513 5511 5508 5505 5503 5500 5497 5495 5493 5491 5489 5487 5484 5481 5478 5473 5468 5464 5460 5456 5453 5449 5446 5443 5442 5440 5433 5426 5425 5423 5416 5407 5400 5397 5395 5391 5383 5374 5368 5364 5358
5548 5548 5548 5547 5547 5548 5548 5548 5548 5548 5548 5548 5547 5546 5546 5546 5545 5544 5542 5541 5540 5538 5537 5536 5535 5534 5533 5532 5531 5530 5529 5527 5526 5525 5524 5523 5522 5521 5519 5517 5515 5513 5510 5508 5505 5502 5499 5497 5494 5492 5489 5486 5484 5482 5480 5478 5476 5472 5469 5464 5460 5455 5451 5446 5441 5438 5435 5431 5429 5428 5421 5412 5409 5409 5403 5393 5384 5380 5378 5376 5372 5362 5353 5349 5344
5537 5537 5537 5536 5536 5536 5536 5537 5537 5537 5537 5537 5537 5537 5537 5536 5534 5533 5531 5530 5529 5528 5527 5526 5525 5524 5524 5523 5522 5521 5519 5517 5517 5516 5515 5515 5514 5512 5511 5509 5507 5504 5502 5499 5497 5493 5491 5489 5486 5483 5481 5478 5475 5474 5472 5470 5467 5464 5460 5456 5452 5447 5442 5438 5433 5429 5426 5421 5417 5417 5412 5403 5397 5394 5391 5383 5372 5364 5359 5357 5356 5349 5339 5334 5331
5526 5526 5525 5524 5524 5524 5525 5526 5526 5526 5526 5526 5527 5526 5526 5525 5523 5522 5521 5520 5519 5518 5517 5517 5516 5515 5515 5514 5513 5512 5510 5508 5508 5507 5506 5505 5505 5504 5502 5499 5497 5495 5493 5490 5488 5485 5482 5480 5478 5476 5473 5470 5467 5465 5463 5462 5459 5456 5453 5448 5443 5439 5434 5429 5425 5421 5417 5412 5407 5405 5402 5396 5388 5381 5376 5371 5361 5352 5343 5339 5338 5331 5320 5317 5317
5515 5515 5514 5514 5513 5513 5514 5514 5515 5516 5516 5516 5516 5516 5515 5514 5513 5512 5511 5510 5509 5508 5507 5507 5506 5506 5505 5505 5504 5502 5500 5499 5498 5498 5497 5496 5496 5495 5493 5490 5488 5485 5483 5480 5478 5476 5474 5472 5470 5468 5465 5462 5459 5456 5454 5453 5451 5448 5444 5440 5435 5431 5425 5420 5416 5412 5407 5403 5398 5393 5389 5385 5378 5371 5364 5356 5348 5339 5330 5328 5326 5315 5303 5299 5299
5503 5503 5503 5503 5503 5502 5503 5503 5504 5505 5505 5505 5505 5505 5504 5504 5503 5502 5500 5500 5499 5498 5497 5496 5496 5497 5496 5495 5495 5493 5491 5490 5489 5488 5487 5487 5487 5486 5484 5481 5479 5476 5474 5472 5470 5467 5465 5464 5462 5460 5457 5453 5450 5448 5445 5443 5442 5438 5435 5431 5427 5422 5416 5411 5408 5403 5397 5394 5389 5382 5378 5373 5367 5362 5354 5343 5335 5325 5315 5313 5312 5304 5294 5286 5282
5491 5491 5491 5492 5491 5491 5492 5493 5493 5494 5494 5495 5495 5495 5494 5494 5493 5492 5490 5490 5489 5487 5487 5487 5487 5487 5487 5486 5485 5484 5482 5481 5480 5478 5478 5478 5478 5477 5474 5472 5470 5467 5465 5463 5461 5459 5456 5455 5453 5451 5449 5445 5442 5439 5436 5433 5432 5428 5425 5422 5418 5412 5406 5402 5399 5394 5389 5385 5381 5374 5368 5362 5356 5351 5345 5335 5326 5315 5303 5297 5293 5287 5281 5274 5266
5478 5479 5480 5480 5480 5481 5482 5482 5483 5483 5484 5485 5484 5484 5484 5484 5483 5482 5480 5480 5479 5478 5478 5479 5478 5478 5478 5477 5476 5475 5474 5473 5471 5470 5469 5469 5469 5467 5465 5463 5460 5458 5456 5454 5452 5450 5447 5445 5443 5441 5439 5436 5432 5429 5426 5423 5421 5418 5414 5411 5407 5402 5396 5392 5388 5385 5381 5376 5372 5367 5361 5354 5346 5340 5335 5327 5318 5307 5296 5285 5277 5269 5263 5258 5252
5467 5468 5468 5469 5469 5471 5472 5472 5472 5473 5474 5474 5474 5473 5474 5473 5472 5471 5471 5470 5470 5470 5470 5470 5469 5468 5468 5467 5466 5466 5465 5463 5462 5461 5460 5460 5459 5457 5455 5453 5451 5449 5447 5445 5443 5441 5438 5435 5433 5431 5428 5425 5422 5418 5415 5412 5409 5407 5403 5399 5396 5392 5387 5382 5378 5374 5371 5367 5362 5356 5351 5345 5337 5330 5323 5316 5307 5298 5288 5277 5266 5256 5247 5242 5239
5457 5457 5458 5459 5459 5460 5461 5461 5461 5462 5462 5463 5463 5462 5462 5462 5462 5462 5461 5461 5462 5462 5461 5460 5459 5459 5458 5457 5457 5456 5455 5454 5453 5452 5451 5450 5449 5448 5445 5443 5441 5439 5438 5436 5434 5431 5429 5426 5423 5421 5418 5415 5411 5408 5405 5401 5398 5395 5392 5388 5385 5380 5376 5372 5368 5363 5359 5355 5351 5346 5340 5334 5328 5321 5313 5306 5298 5289 5280 5270 5259 5248 5237 5229 5226
5446 5448 5448 5449 5449 5449 5450 5449 5449 5450 5451 5451 5451 5451 5452 5452 5453 5452 5452 5453 5454 5454 5452 5450 5449 5449 5448 5447 5448 5447 5446 5445 5444 5442 5441 5440 5440 5439 5436 5433 5432 5431 5429 5427 5424 5422 5420 5417 5414 5411 5408 5405 5401 5397 5394 5391 5388 5385 5381 5377 5374 5370 5365 5361 5357 5352 5348 5343 5338 5334 5328 5322 5318 5312 5304 5298 5291 5282 5272 5263 5252 5242 5232 5222 5216
5435 5438 5438 5439 5438 5437 5437 5437 5437 5438 5439 5439 5439 5440 5441 5442 5442 5442 5442 5443 5444 5444 5443 5441 5440 5440 5439 5438 5438 5437 5436 5435 5434 5432 5431 5430 5430 5430 5427 5424 5423 5422 5419 5417 5415 5412 5410 5408 5405 5402 5399 5395 5392 5387 5384 5380 5378 5374 5371 5367 5363 5359 5355 5351 5347 5342 5338 5333 5327 5323 5317 5311 5306 5302 5295 5289 5283 5274 5264 5255 5245 5235 5226 5218 5212
5425 5426 5427 5428 5429 5429 5428 5428 5428 5428 5428 5428 5428 5429 5430 5431 5431 5432 5432 5433 5433 5434 5433 5432 5431 5430 5429 5428 5428 5428 5426 5425 5423 5422 5421 5421 5420 5420 5417 5415 5413 5412 5410 5407 5405 5403 5401 5399 5396 5393 5390 5386 5382 5378 5374 5370 5367 5364 5361 5357 5354 5350 5346 5342 5337 5333 5328 5323 5317 5312 5308 5302 5296 5292 5286 5279 5273 5265 5255 5245 5236 5226 5218 5213 5208
5415 5416 5416 5418 5419 5421 5421 5420 5420 5420 5419 5418 5418 5418 5419 5420 5421 5421 5422 5423 5423 5424 5423 5422 5421 5421 5420 5419 5418 5418 5417 5415 5413 5412 5411 5410 5410 5409 5408 5405 5404 5402 5401 5398 5395 5393 5391 5389 5387 5383 5380 5377 5373 5369 5365 5361 5357 5354 5350 5347 5343 5340 5336 5332 5327 5323 5318 5313 5307 5302 5297 5292 5287 5281 5275 5269 5262 5253 5243 5234 5226 5218 5210 5205 5203
5406 5406 5406 5407 5407 5408 5409 5409 5409 5410 5409 5408 5408 5408 5409 5410 5411 5411 5412 5413 5413 5414 5413 5412 5412 5411 5410 5410 5409 5408 5407 5406 5404 5403 5402 5400 5399 5398 5397 5396 5394 5393 5391 5388 5385 5383 5381 5379 5377 5374 5371 5368 5364 5360 5356 5352 5348 5344 5340 5337 5333 5330 5326 5322 5317 5312 5307 5302 5297 5292 5287 5282 5277 5271 5264 5257 5249 5239 5229 5221 5215 5209 5202 5198 5197
5395 5395 5395 5395 5396 5396 5397 5397 5397 5398 5398 5398 5398 5399 5400 5400 5400 5401 5402 5402 5402 5403 5403 5402 5402 5401 5400 5399 5399 5398 5397 5396 5395 5394 5393 5391 5389 5387 5387 5386 5384 5383 5381 5378 5376 5374 5372 5370 5367 5364 5361 5358 5354 5351 5347 5343 5339 5335 5331 5327 5324 5320 5316 5311 5306 5300 5295 5290 5286 5281 5276 5271 5266 5260 5253 5245 5237 5227 5217 5208 5203 5199 5195 5190 5189
5381 5382 5382 5383 5384 5384 5385 5386 5386 5386 5386 5387 5387 5388 5389 5389 5389 5390 5390 5390 5391 5392 5392 5392 5391 5391 5390 5389 5389 5388 5387 5387 5386 5385 5383 5382 5380 5378 5377 5375 5373 5372 5370 5368 5366 5364 5363 5360 5357 5354 5351 5348 5344 5341 5338 5335 5331 5327 5323 5319 5316 5311 5306 5301 5296 5290 5284 5280 5275 5270 5265 5260 5254 5248 5241 5234 5225 5215 5206 5198 5192 5189 5186 5183 5180
5367 5368 5370 5371 5372 5373 5373 5373 5374 5374 5375 5375 5375 5376 5377 5378 5378 5378 5379 5379 5380 5381 5381 5381 5381 5380 5379 5379 5379 5378 5378 5377 5376 5374 5374 5373 5371 5369 5368 5366 5364 5362 5360 5358 5356 5354 5352 5350 5347 5345 5342 5339 5335 5332 5329 5326 5322 5318 5315 5311 5307 5303 5297 5292 5288 5282 5276 5271 5265 5260 5255 5250 5244 5237 5230 5222 5214 5205 5196 5189 5184 5180 5177 5175 5173
5353 5355 5357 5358 5359 5360 5360 5360 5362 5362 5362 5362 5363 5364 5365 5366 5366 5367 5367 5368 5368 5368 5369 5370 5369 5369 5369 5369 5369 5368 5368 5367 5365 5364 5364 5363 5361 5359 5358 5357 5355 5353 5351 5348 5346 5344 5342 5340 5337 5335 5332 5330 5326 5323 5321 5318 5315 5311 5306 5302 5297 5294 5289 5283 5279 5274 5268 5262 5256 5250 5244 5239 5234 5227 5219 5211 5204 5196 5188 5181 5176 5172 5170 5167 5165
5339 5341 5343 5344 5346 5347 5347 5348 5349 5350 5350 5350 5351 5352 5353 5354 5354 5355 5356 5356 5356 5357 5358 5359 5359 5359 5359 5359 5359 5359 5358 5356 5355 5355 5354 5352 5350 5349 5348 5347 5346 5344 5341 5339 5337 5335 5333 5331 5328 5326 5324 5321 5318 5316 5313 5311 5308 5305 5301 5295 5290 5286 5281 5276 5271 5265 5260 5254 5247 5241 5234 5228 5222 5216 5209 5201 5193 5187 5181 5175 5169 5166 5163 5160 5157
5324 5328 5330 5331 5332 5333 5334 5335 5337 5337 5338 5339 5339 5340 5341 5341 5342 5343 5344 5345 5345 5346 5347 5349 5349 5349 5349 5349 5348 5348 5346 5346 5345 5345 5343 5341 5340 5339 5338 5337 5336 5334 5332 5331 5329 5327 5325 5322 5320 5318 5315 5312 5310 5308 5306 5304 5301 5298 5294 5290 5284 5279 5274 5270 5264 5258 5252 5246 5240 5233 5226 5218 5212 5206 5199 5190 5183 5178 5173 5169 5163 5160 5157 5153 5150
5309 5313 5315 5317 5318 5319 5320 5322 5323 5324 5326 5326 5327 5328 5329 5330 5330 5331 5332 5333 5334 5335 5337 5338 5339 5338 5338 5338 5337 5336 5335 5335 5334 5333 5332 5331 5330 5329 5328 5327 5326 5325 5324 5323 5321 5319 5316 5314 5311 5309 5306 5304 5303 5301 5299 5297 5294 5291 5287 5283 5278 5273 5268 5263 5258 5252 5245 5238 5231 5224 5217 5209 5202 5196 5189 5181 5174 5169 5166 5162 5158 5154 5151 5147 5143
5295 5297 5299 5300 5302 5304 5307 5309 5310 5311 5312 5313 5314 5315 5317 5317 5317 5318 5320 5322 5323 5324 5326 5327 5328 5328 5327 5326 5326 5325 5324 5324 5323 5322 5321 5320 5319 5319 5318 5317 5317 5316 5316 5314 5312 5310 5308 5305 5303 5300 5298 5297 5295 5293 5291 5289 5286 5283 5279 5275 5270 5266 5261 5256 5250 5244 5238 5230 5223 5215 5208 5200 5193 5186 5180 5173 5167 5162 5159 5155 5152 5148 5144 5140 5137
5281 5282 5283 5283 5286 5290 5293 5295 5297 5298 5300 5300 5301 5302 5303 5304 5305 5306 5308 5310 5311 5313 5314 5316 5317 5317 5316 5315 5315 5314 5313 5313 5312 5311 5311 5310 5310 5310 5309 5308 5307 5307 5306 5305 5303 5301 5299 5297 5294 5292 5290 5289 5288 5286 5284 5282 5279 5276 5272 5268 5263 5259 5255 5249 5243 5236 5230 5222 5215 5207 5200 5192 5185 5177 5171 5165 5160 5156 5153 5149 5146 5142 5138 5134 5130
5263 5266 5268 5270 5272 5275 5278 5280 5282 5284 5286 5287 5288 5289 5290 5291 5293 5295 5296 5297 5299 5301 5302 5304 5305 5304 5304 5304 5303 5303 5303 5302 5301 5300 5300 5300 5301 5301 5299 5297 5297 5296 5295 5295 5294 5292 5290 5288 5286 5284 5283 5282 5281 5279 5277 5275 5272 5269 5264 5261 5257 5253 5248 5243 5236 5230 5222 5215 5207 5199 5191 5184 5177 5170 5164 5159 5154 5150 5147 5144 5141 5137 5132 5128 5124
5245 5248 5251 5254 5255 5257 5260 5264 5267 5269 5271 5272 5274 5275 5276 5278 5281 5283 5284 5286 5288 5289 5291 5292 5293 5293 5292 5292 5292 5291 5292 5291 5290 5290 5290 5290 5290 5290 5289 5288 5287 5286 5285 5285 5285 5283 5282 5280 5278 5276 5276 5275 5274 5272 5270 5268 5265 5261 5257 5253 5250 5246 5242 5235 5228 5222 5215 5207 5199 5191 5184 5177 5169 5163 5158 5154 5149 5145 5141 5138 5135 5132 5128 5123 5119
5226 5230 5233 5235 5236 5238 5241 5246 5250 5253 5256 5258 5260 5261 5263 5265 5268 5270 5272 5274 5276 5278 5279 5280 5281 5281 5281 5280 5280 5280 5279 5279 5279 5279 5280 5281 5281 5281 5280 5279 5277 5276 5276 5275 5275 5275 5274 5272 5270 5269 5268 5268 5267 5266 5264 5261 5257 5253 5250 5247 5244 5239 5234 5228 5221 5214 5206 5199 5191 5183 5176 5170 5163 5158 5153 5148 5144 5140 5137 5133 5130 5127 5123 5119 5115
5208 5212 5215 5216 5219 5222 5225 5229 5233 5236 5239 5242 5245 5247 5249 5252 5254 5257 5259 5261 5263 5265 5267 5268 5269 5269 5268 5267 5267 5267 5267 5267 5268 5268 5269 5271 5272 5271 5270 5269 5268 5268 5267 5267 5267 5266 5266 5265 5264 5262 5262 5261 5260 5259 5257 5253 5250 5247 5244 5241 5238 5232 5227 5221 5215 5207 5199 5192 5184 5176 5169 5163 5158 5153 5149 5144 5140 5136 5132 5129 5125 5121 5118 5115 5111
5192 5195 5198 5200 5203 5206 5210 5213 5217 5220 5223 5226 5229 5231 5234 5237 5240 5242 5245 5247 5249 5251 5253 5255 5256 5256 5255 5255 5255 5256 5256 5255 5255 5256 5258 5260 5261 5261 5261 5261 5260 5260 5260 5260 5260 5259 5258 5257 5257 5257 5256 5255 5254 5252 5249 5246 5243 5241 5238 5235 5231 5226 5220 5213 5207 5200 5192 5185 5177 5170 5164 5158 5153 5149 5145 5141 5136 5132 5128 5124 5121 5117 5114 5110 5107
5177 5179 5183 5186 5188 5191 5195 5198 5202 5206 5208 5210 5213 5216 5219 5222 5225 5227 5230 5232 5234 5237 5239 5241 5242 5242 5242 5243 5244 5244 5244 5244 5245 5247 5249 5250 5251 5252 5252 5252 5253 5253 5254 5254 5253 5252 5251 5251 5251 5250 5250 5249 5247 5245 5242 5240 5238 5236 5232 5228 5224 5219 5212 5206 5200 5193 5186 5178 5171 5164 5158 5153 5149 5145 5141 5137 5132 5128 5124 5120 5117 5113 5110 5107 5103
5162 5166 5170 5172 5174 5178 5182 5185 5188 5191 5193 5195 5199 5202 5205 5208 5210 5213 5216 5218 5220 5223 5225 5227 5228 5229 5229 5231 5232 5232 5232 5234 5236 5239 5240 5241 5242 5243 5244 5245 5246 5247 5247 5247 5247 5246 5245 5245 5244 5244 5243 5242 5240 5238 5236 5234 5232 5229 5226 5221 5217 5211 5205 5199 5193 5186 5179 5172 5165 5159 5153 5149 5145 5141 5137 5133 5128 5124 5120 5116 5113 5110 5107 5104 5101
5149 5152 5156 5159 5162 5166 5169 5172 5174 5176 5179 5182 5186 5188 5191 5194 5196 5199 5202 5204 5206 5209 5211 5213 5214 5215 5217 5218 5220 5221 5223 5226 5229 5231 5232 5233 5234 5235 5236 5238 5239 5240 5241 5240 5240 5239 5239 5239 5238 5238 5237 5236 5234 5232 5230 5228 5226 5223 5219 5215 5209 5204 5198 5192 5186 5180 5173 5167 5161 5155 5149 5144 5141 5137 5133 5129 5125 5121 5116 5113 5109 5106 5104 5101 5099
5136 5140 5144 5147 5150 5154 5157 5159 5162 5164 5167 5170 5173 5175 5178 5182 5184 5187 5190 5191 5193 5195 5197 5200 5202 5204 5206 5209 5211 5214 5217 5219 5222 5223 5225 5226 5227 5228 5230 5232 5233 5233 5234 5234 5234 5233 5233 5233 5233 5232 5231 5230 5228 5226 5224 5222 5219 5216 5212 5208 5202 5197 5191 5185 5179 5173 5167 5162 5156 5150 5145 5140 5137 5133 5129 5125 5121 5117 5113 5109 5106 5104 5101 5099 5097
5127 5131 5134 5137 5141 5143 5146 5149 5151 5154 5157 5160 5163 5166 5169 5172 5175 5177 5178 5179 5181 5184 5186 5189 5191 5194 5197 5201 5204 5207 5209 5212 5214 5216 5217 5219 5220 5222 5223 5225 5226 5227 5228 5228 5228 5228 5228 5227 5227 5226 5225 5224 5222 5220 5217 5215 5212 5209 5205 5200 5195 5190 5184 5178 5172 5166 5161 5155 5150 5145 5140 5136 5132 5128 5125 5121 5117 5113 5110 5106 5103 5101 5099 5097 5095
5121 5124 5127 5130 5133 5136 5138 5141 5143 5146 5149 5152 5155 5158 5161 5164 5166 5167 5168 5170 5172 5175 5177 5180 5183 5187 5191 5194 5197 5199 5202 5205 5207 5209 5211 5212 5214 5216 5217 5218 5220 5221 5222 5222 5222 5222 5222 5221 5221 5220 5219 5217 5215 5213 5211 5208 5205 5201 5197 5192 5187 5182 5177 5172 5166 5160 5155 5150 5145 5139 5135 5131 5128 5124 5121 5117 5113 5110 5106 5103 5100 5098 5096 5095 5093
5117 5119 5122 5125 5127 5130 5132 5135 5137 5140 5143 5146 5149 5152 5155 5157 5159 5161 5162 5164 5166 5168 5171 5174 5177 5181 5184 5187 5190 5193 5196 5198 5200 5203 5205 5206 5208 5210 5212 5213 5215 5216 5216 5217 5217 5217 5216 5216 5215 5214 5212 5211 5209 5207 5204 5201 5198 5194 5189 5185 5180 5175 5171 5165 5160 5155 5150 5145 5139 5134 5130 5127 5123 5120 5117 5114 5110 5106 5103 5101 5098 5096 5094 5092 5090
5113 5115 5118 5120 5123 5125 5128 5130 5133 5135 5138 5141 5144 5147 5149 5152 5154 5156 5157 5159 5161 5163 5166 5169 5173 5176 5178 5181 5184 5187 5190 5192 5194 5197 5199 5201 5203 5205 5207 5209 5210 5210 5211 5211 5211 5211 5211 5210 5209 5208 5206 5204 5203 5200 5198 5195 5191 5187 5183 5178 5173 5169 5165 5159 5154 5149 5145 5140 5135 5130 5126 5122 5119 5116 5113 5110 5107 5103 5100 5098 5096 5094 5092 5091 5088
5109 5111 5113 5116 5118 5121 5123 5126 5128 5131 5133 5136 5139 5142 5144 5147 5149 5151 5152 5154 5157 5159 5163 5165 5168 5171 5174 5177 5179 5181 5184 5186 5189 5192 5194 5196 5199 5201 5202 5204 5205 5205 5206 5206 5206 5206 5205 5204 5203 5202 5200 5198 5196 5194 5191 5188 5185 5181 5176 5172 5168 5164 5159 5154 5149 5144 5140 5136 5131 5126 5122 5119 5116 5113 5110 5107 5104 5100 5097 5095 5094 5092 5091 5089 5087
5104 5106 5108 5111 5113 5116 5118 5121 5124 5126 5129 5132 5135 5137 5140 5142 5144 5146 5148 5151 5153 5156 5159 5161 5164 5167 5169 5172 5174 5176 5179 5181 5184 5187 5190 5192 5194 5196 5198 5199 5200 5200 5201 5201 5200 5200 5200 5199 5197 5196 5194 5192 5190 5188 5185 5182 5178 5175 5171 5167 5163 5159 5155 5150 5145 5140 5135 5132 5127 5123 5119 5115 5113 5110 5107 5104 5101 5098 5095 5093 5091 5090 5089 5087 5085
5100 5102 5104 5107 5109 5112 5115 5118 5120 5123 5126 5128 5131 5133 5135 5137 5139 5141 5144 5147 5150 5152 5155 5158 5160 5162 5164 5167 5169 5172 5175 5178 5181 5183 5186 5188 5190 5192 5193 5194 5195 5195 5195 5195 5195 5194 5194 5193 5191 5189 5187 5186 5183 5181 5178 5175 5172 5169 5166 5162 5158 5154 5150 5145 5141 5136 5131 5127 5123 5119 5115 5112 5109 5107 5104 5101 5099 5096 5093 5091 5089 5088 5086 5085 5084